RH
32 41 87 93 95 96 99 98 98 100 100 100 100 99 99 98 98 98 99 99 95 97 96 86 82 82 83 83 83 72 67 68 87 80 83 90 85 83 74 70 74 83 90
31 41 78 89 93 89 94 95 95 96 99 100 100 100 100 99 98 98 98 98 98 99 98 97 85 84 81 82 75 79 72 69 66 76 80 76 82 77 62 61 74 82 88
29 39 74 85 88 86 88 89 91 92 94 97 100 100 100 100 100 99 99 98 99 98 98 99 98 95 85 81 80 80 78 72 66 65 72 80 76 64 68 66 85 73 88
28 37 77 85 85 83 84 85 86 87 88 91 94 97 100 100 100 99 100 98 99 99 99 99 99 92 88 88 83 78 82 76 66 65 66 70 58 70 69 68 88 93 92
26 32 76 83 82 82 82 81 81 81 80 82 82 86 89 97 99 100 100 100 99 99 99 99 99 99 98 90 85 81 78 80 65 64 68 57 58 70 67 74 89 94 90
26 28 51 75 76 80 78 80 78 78 78 76 80 79 76 78 83 86 93 99 100 100 99 98 98 98 100 95 93 87 83 79 75 84 69 62 65 67 72 76 86 87 83
29 29 31 58 66 68 78 78 77 76 75 72 73 73 73 70 72 74 76 82 88 98 100 99 99 99 96 98 99 96 91 88 86 80 70 69 70 71 79 76 81 91 89
31 32 30 35 47 49 67 71 75 72 69 65 66 64 62 59 61 68 71 77 76 80 86 94 100 99 99 96 98 98 88 87 93 85 70 67 67 70 76 75 86 94 91
34 34 32 30 34 32 42 61 62 65 62 60 57 57 52 47 51 56 61 65 70 70 75 73 80 91 98 94 97 99 93 86 86 86 70 66 67 70 71 82 88 96 92
33 33 34 32 32 30 30 49 49 54 52 48 46 49 44 40 41 45 50 54 60 61 65 66 66 67 65 80 89 100 99 89 84 89 78 70 71 74 71 92 95 89 91
30 33 34 35 34 32 26 34 36 41 40 38 36 40 34 34 36 39 45 51 52 53 52 55 54 53 53 59 72 79 95 98 96 82 73 71 73 73 73 94 87 88 90
30 31 34 34 34 32 26 31 32 33 34 33 33 37 36 35 39 41 40 41 41 42 41 45 44 42 39 43 52 63 73 84 94 97 92 79 71 74 74 91 94 92 77
32 33 36 34 34 32 29 28 28 30 33 32 34 38 40 38 38 39 39 39 36 35 36 38 35 34 35 38 41 43 55 68 82 92 94 89 96 84 79 91 86 87 89
35 34 35 35 33 32 29 26 26 26 32 34 36 39 40 39 38 38 40 42 39 40 41 41 39 36 33 36 40 36 37 48 64 78 88 91 91 98 97 94 87 88 83
35 36 36 36 35 34 33 32 30 32 34 39 40 42 46 45 41 40 39 41 42 45 48 45 41 39 35 35 36 32 33 35 43 58 77 86 91 95 99 99 91 89 94
32 35 37 36 37 36 34 33 30 31 32 35 39 42 46 50 48 46 46 43 41 46 51 50 46 42 40 38 35 32 30 32 36 40 50 69 86 91 96 98 98 91 88
32 35 37 33 38 36 34 34 31 31 32 31 33 35 37 45 50 51 49 47 46 50 49 48 46 45 44 42 39 35 32 31 36 38 40 50 65 82 88 97 98 97 88
32 33 38 37 37 38 37 37 36 35 34 32 35 36 37 44 46 48 47 47 51 52 50 48 45 46 46 44 42 40 37 35 37 37 37 41 53 73 81 89 91 87 89
34 34 35 38 38 39 39 39 38 36 35 34 35 36 38 45 47 48 47 47 49 52 51 48 47 48 48 46 44 36 36 40 42 34 33 32 37 47 59 83 97 94 86
37 37 36 35 37 39 37 35 34 34 34 37 37 38 43 46 49 49 50 48 48 49 50 50 50 50 50 49 46 45 49 45 40 38 39 36 39 46 53 53 78 98 90
37 36 34 35 36 38 36 35 35 36 37 38 40 43 43 43 46 51 52 50 49 50 50 52 52 51 50 50 53 51 48 42 36 32 32 32 31 31 33 38 50 84 99
32 33 34 33 36 38 38 39 40 40 37 37 37 37 39 42 46 49 50 54 53 52 52 52 52 53 52 50 53 54 46 40 31 55 49 47 51 58 62 67 60 56 93
33 34 35 35 38 39 40 40 37 35 32 32 33 37 42 44 47 51 53 56 57 57 55 54 55 55 54 52 52 51 55 51 57 40 49 40 57 64 80 89 98 98 98
33 38 39 39 40 38 41 40 39 38 37 36 40 42 44 46 47 50 55 57 58 60 59 57 54 54 56 55 53 51 51 54 67 63 48 54 48 54 69 79 80 88 96
38 39 39 38 40 39 40 41 41 41 42 43 44 44 44 45 47 50 54 57 59 60 59 59 59 58 58 57 56 55 53 54 52 61 69 55 61 63 66 69 74 68 80
40 40 41 40 38 40 41 42 44 45 46 46 46 46 46 47 49 51 53 55 57 58 58 59 60 60 60 58 58 56 57 57 54 59 67 59 58 62 62 62 68 71 73
Wind_Speed
10 14 21 21 23 25 26 28 28 28 29 29 29 28 29 28 27 26 25 22 14 13 13 10 4 3 2 1 5 4 2 3 3 3 3 4 7 7 7 9 9 7 9
8 12 17 19 21 22 25 26 27 28 28 28 27 27 26 26 25 26 26 23 22 23 14 13 10 6 3 4 3 2 3 2 0 3 3 1 3 4 5 7 5 9 8
9 10 15 17 20 21 23 24 25 27 27 27 27 27 26 26 25 25 25 23 19 20 21 19 13 11 3 5 3 2 5 5 3 3 4 5 4 4 5 7 4 6 8
8 9 14 16 19 21 22 23 24 26 26 27 26 26 26 26 26 24 24 24 22 17 18 18 18 11 8 4 6 6 4 7 7 5 5 7 7 5 6 8 6 6 8
8 10 14 16 18 20 21 23 24 24 25 26 26 26 26 25 25 24 24 24 23 22 16 14 13 12 7 3 5 5 6 9 9 8 8 7 8 8 8 9 8 8 7
8 10 14 17 18 20 22 22 23 23 24 25 26 25 25 25 26 26 26 25 24 23 21 15 10 8 7 2 1 6 8 9 10 9 10 8 9 7 9 12 11 9 8
9 11 13 16 17 19 20 21 21 23 24 25 25 25 24 24 24 25 25 26 25 24 23 21 17 10 6 4 5 4 9 9 10 11 11 10 10 12 12 13 13 13 12
9 9 10 13 15 14 17 19 21 23 24 25 25 26 24 23 23 24 23 25 25 25 24 23 21 19 10 7 7 7 9 10 11 12 14 12 13 13 15 12 16 15 14
9 10 11 11 12 13 17 21 21 22 22 23 24 25 23 21 23 23 22 24 25 24 24 23 23 21 18 10 11 10 10 11 13 14 14 13 15 16 17 15 16 18 15
10 10 11 12 13 13 13 16 17 20 21 21 22 25 23 20 22 23 22 24 23 22 23 22 23 23 20 14 13 11 11 12 15 13 15 15 16 15 15 15 15 21 19
7 9 9 11 12 13 13 15 15 16 18 21 23 24 22 21 21 22 21 23 22 22 21 22 21 22 20 17 14 14 11 9 10 14 17 19 20 21 18 16 17 25 22
6 7 8 10 11 12 12 14 15 16 17 17 19 21 20 20 19 20 19 21 21 21 20 22 21 19 17 17 16 16 10 14 17 14 17 12 20 21 19 18 15 20 23
5 6 7 9 10 12 12 13 13 15 16 17 19 19 18 18 19 20 19 21 21 21 21 21 20 20 19 18 17 16 17 16 15 19 20 20 13 21 22 21 22 19 26
5 5 6 7 9 10 10 11 12 12 14 16 16 17 18 18 17 18 19 20 20 20 20 20 21 21 20 18 17 17 18 18 18 18 22 25 23 18 22 22 25 25 24
5 4 5 7 9 10 10 12 12 13 14 15 15 16 19 19 19 20 19 18 18 19 20 21 20 21 21 20 19 19 20 20 20 21 23 24 27 25 22 24 25 27 26
5 4 4 5 7 9 10 12 12 13 14 13 13 13 13 14 15 18 19 19 19 18 18 19 20 22 21 20 21 20 21 22 22 23 25 27 29 30 26 26 28 28 30
6 3 3 5 7 9 9 11 10 11 12 11 12 13 13 13 14 15 16 16 16 20 20 18 18 18 22 22 21 22 23 22 23 24 25 27 31 33 33 28 30 31 32
5 3 3 4 6 8 10 11 11 11 12 12 13 13 14 15 15 16 17 17 17 18 19 20 21 20 21 23 24 24 24 25 25 26 27 27 27 28 31 30 32 35 36
5 2 2 4 5 6 8 10 11 12 12 12 13 13 15 18 16 17 18 19 20 19 18 18 19 21 23 24 24 26 27 26 28 29 29 28 28 30 35 35 30 33 39
5 2 0 3 4 5 7 9 10 12 11 12 11 12 14 14 15 17 18 19 20 20 20 19 20 20 21 23 25 28 27 29 27 26 28 28 26 27 32 37 38 33 36
7 4 1 3 4 5 7 10 11 12 13 13 13 13 12 13 13 14 15 16 17 18 18 20 21 21 21 21 23 22 26 33 34 30 29 30 29 30 32 36 39 40 34
8 5 2 3 4 5 7 10 11 12 14 14 14 13 13 14 15 15 16 16 17 18 18 17 17 20 20 19 19 22 7 16 16 20 17 19 20 15 17 24 33 40 43
10 6 3 4 4 6 9 10 11 13 14 14 13 15 15 17 17 17 17 17 17 16 18 18 18 18 20 18 16 12 6 5 18 15 29 25 19 23 21 21 15 19 31
10 6 4 4 5 7 8 10 12 14 15 16 17 16 18 19 19 19 17 17 17 17 18 18 18 18 18 20 19 18 20 21 8 9 17 28 35 22 25 26 25 25 23
9 6 4 5 6 8 10 11 12 14 15 16 17 18 19 20 18 18 18 18 18 17 19 19 20 21 20 20 19 20 20 20 22 15 12 18 25 23 24 29 29 32 30
10 6 5 5 7 9 10 12 13 15 16 17 18 21 19 18 19 18 18 18 19 20 20 20 20 21 22 23 22 23 21 18 16 16 11 14 18 30 28 31 27 28 28
Wind_Direction
348 354 3 8 13 14 17 22 25 27 26 27 29 30 30 35 37 34 37 36 25 23 18 15 10 307 228 350 345 350 21 48 86 103 113 117 121 127 135 132 109 120 128
0 3 11 13 17 18 20 22 24 27 27 28 28 28 27 28 29 29 33 35 40 38 24 20 13 15 246 239 289 311 306 293 207 178 176 164 186 176 168 158 161 167 139
21 17 18 19 21 23 25 22 23 26 26 28 28 25 26 26 27 25 23 23 31 36 36 34 25 25 312 223 231 216 287 276 265 219 196 180 210 225 196 175 173 168 155
34 31 26 24 26 25 27 24 25 26 26 26 26 26 24 26 25 24 22 22 22 19 26 33 37 31 24 311 297 277 258 277 273 238 226 261 210 224 211 189 190 176 167
43 38 30 32 32 29 29 27 26 26 26 26 23 25 24 23 24 22 23 22 20 19 14 14 33 38 44 18 299 277 267 270 270 253 239 257 263 228 223 200 194 201 192
46 38 31 31 32 31 29 26 26 25 25 24 22 22 22 21 21 18 19 20 19 14 12 4 357 13 24 27 291 272 263 257 263 258 255 253 236 245 229 215 195 209 206
48 36 28 28 30 29 27 25 24 25 24 22 20 19 19 18 18 15 15 14 15 13 10 6 358 337 331 338 341 276 254 257 257 255 250 249 251 242 256 234 211 211 213
56 48 40 28 27 25 24 25 25 23 22 19 16 16 14 13 13 12 11 9 9 8 6 2 360 354 305 293 296 278 252 240 249 256 258 254 253 249 252 238 225 217 219
50 46 39 31 27 23 17 19 19 20 19 16 15 14 10 9 8 8 5 6 5 3 1 359 355 352 344 311 270 282 266 246 240 243 256 253 257 256 258 244 231 219 221
51 41 33 28 24 22 18 17 17 13 11 12 12 10 7 3 3 2 360 359 360 359 356 355 352 348 342 345 335 297 283 258 253 252 247 254 256 263 261 247 234 225 222
57 44 34 27 22 19 15 11 12 10 11 9 6 5 5 1 357 356 352 354 355 354 354 352 348 348 345 339 335 320 303 284 257 258 249 248 253 254 253 249 254 225 215
73 51 38 28 22 19 14 10 8 6 6 7 5 2 0 357 354 353 349 350 350 349 351 348 347 348 348 340 332 331 323 310 282 273 266 264 254 257 253 243 247 226 210
90 62 40 30 23 19 14 10 6 2 0 359 0 1 359 355 352 351 350 348 348 348 349 344 344 343 338 333 329 321 313 307 298 278 264 258 265 258 256 240 242 236 228
104 70 46 31 23 17 13 8 2 1 358 356 354 356 357 353 350 348 348 345 344 344 344 341 337 332 330 326 319 314 310 304 298 288 277 257 259 259 253 246 238 240 236
123 86 49 30 20 11 8 3 358 354 351 347 347 348 353 351 348 346 343 341 341 340 339 336 333 329 325 321 317 313 307 301 295 290 285 272 253 257 253 251 243 239 239
130 93 56 34 19 10 6 360 353 347 341 338 335 335 338 340 339 338 337 337 338 337 331 328 327 326 320 315 313 309 304 298 293 289 286 280 262 251 254 252 247 239 236
139 108 49 23 12 6 357 349 343 336 334 333 333 333 336 339 335 331 328 326 327 328 328 325 323 322 319 317 311 308 304 298 293 288 286 284 278 262 248 255 251 242 235
140 103 50 20 6 356 347 342 338 336 335 332 332 333 333 336 336 331 325 324 326 325 325 325 325 325 318 315 313 308 301 296 293 289 284 280 279 274 262 252 258 251 239
149 107 32 2 350 345 340 334 331 328 329 327 326 327 329 330 330 330 325 325 326 323 322 322 321 321 317 313 309 306 302 297 289 285 280 277 274 274 268 254 260 256 246
164 157 326 330 324 329 328 322 320 318 319 317 316 314 317 318 321 323 319 318 320 319 318 318 316 313 308 308 309 304 297 294 288 278 276 274 271 269 273 264 256 263 249
181 190 247 312 310 315 321 321 321 317 313 312 311 309 309 308 304 303 302 303 307 305 308 311 313 312 314 314 310 310 305 285 275 270 267 266 264 262 263 271 260 251 246
189 199 241 293 300 312 316 312 305 304 304 304 302 303 308 308 307 305 301 299 299 300 301 302 304 306 305 312 313 313 306 314 282 319 300 278 279 286 273 264 266 256 253
196 203 241 291 302 307 308 307 307 306 307 308 309 310 309 307 305 301 296 295 293 292 294 297 296 295 299 304 301 290 312 318 337 308 318 310 319 314 310 301 286 264 258
190 202 247 279 296 304 308 307 308 309 305 307 308 306 304 303 300 297 295 293 293 293 288 287 286 288 292 293 296 286 279 286 289 302 301 309 307 302 312 309 308 290 278
192 207 246 278 301 302 305 305 305 300 299 301 300 300 299 296 294 296 295 294 292 291 288 287 288 286 283 282 283 288 287 285 281 280 287 298 297 300 306 310 313 306 302
197 216 256 281 293 303 305 299 296 294 296 298 299 297 296 297 296 294 292 292 290 289 288 286 286 283 281 278 277 276 276 277 282 288 290 290 295 298 299 299 299 301 307